TimePDT,TemperatureF,Dew PointF,Humidity,Sea Level PressureIn,VisibilityMPH,Wind Direction,Wind SpeedMPH,Gust SpeedMPH,PrecipitationIn,Events,Conditions,WindDirDegrees,DateUTC
12:00 AM,66.2,60.8,83,29.98,10.0,NW,8.1,-,N/A,,Mostly Cloudy,310,2013-06-26 07:00:00
12:53 AM,66.9,61.0,81,29.98,10.0,NW,3.5,-,N/A,,Overcast,320,2013-06-26 07:53:00
1:53 AM,66.9,61.0,81,29.98,10.0,Calm,Calm,-,N/A,,Overcast,0,2013-06-26 08:53:00
2:49 AM,66.2,60.8,83,29.98,10.0,Calm,Calm,-,N/A,,Scattered Clouds,0,2013-06-26 09:49:00
2:53 AM,66.0,61.0,84,29.98,10.0,WNW,3.5,-,N/A,,Partly Cloudy,300,2013-06-26 09:53:00
3:12 AM,64.4,60.8,88,29.98,10.0,NW,3.5,-,N/A,,Mostly Cloudy,320,2013-06-26 10:12:00
3:53 AM,66.0,61.0,84,29.98,10.0,NW,4.6,-,N/A,,Overcast,310,2013-06-26 10:53:00
4:31 AM,66.2,60.8,83,29.99,10.0,NNW,3.5,-,N/A,,Overcast,330,2013-06-26 11:31:00
4:53 AM,66.0,61.0,84,29.99,10.0,NNW,3.5,-,N/A,,Overcast,340,2013-06-26 11:53:00
5:53 AM,66.0,60.1,81,30.01,10.0,SE,3.5,-,N/A,,Overcast,140,2013-06-26 12:53:00
6:53 AM,66.9,61.0,81,30.02,10.0,Calm,Calm,-,N/A,,Overcast,0,2013-06-26 13:53:00
7:53 AM,66.9,61.0,81,30.04,10.0,SW,4.6,-,N/A,,Overcast,230,2013-06-26 14:53:00
8:53 AM,68.0,61.0,78,30.04,10.0,South,3.5,-,N/A,,Overcast,180,2013-06-26 15:53:00
9:53 AM,71.1,61.0,70,30.04,10.0,Calm,Calm,-,N/A,,Scattered Clouds,0,2013-06-26 16:53:00
10:53 AM,75.0,62.1,64,30.04,10.0,NW,5.8,-,N/A,,Partly Cloudy,320,2013-06-26 17:53:00
11:53 AM,78.1,62.1,58,30.04,10.0,NW,8.1,-,N/A,,Clear,310,2013-06-26 18:53:00
12:53 PM,81.0,62.1,52,30.03,10.0,NNW,8.1,-,N/A,,Clear,330,2013-06-26 19:53:00
1:53 PM,82.0,63.0,52,30.02,10.0,WNW,13.8,-,N/A,,Clear,300,2013-06-26 20:53:00
2:53 PM,80.1,63.0,56,30.01,10.0,WNW,18.4,23.0,N/A,,Clear,290,2013-06-26 21:53:00
3:53 PM,81.0,62.1,52,30.00,10.0,WNW,16.1,-,N/A,,Clear,290,2013-06-26 22:53:00
4:53 PM,81.0,62.1,52,29.99,10.0,WNW,17.3,-,N/A,,Clear,300,2013-06-26 23:53:00
5:53 PM,80.1,61.0,52,29.99,10.0,WNW,16.1,-,N/A,,Clear,300,2013-06-27 00:53:00
6:53 PM,77.0,60.1,56,29.99,10.0,NW,17.3,-,N/A,,Clear,310,2013-06-27 01:53:00
7:53 PM,75.0,57.9,55,30.00,10.0,WNW,16.1,-,N/A,,Clear,300,2013-06-27 02:53:00
8:53 PM,72.0,57.9,61,30.01,10.0,NW,11.5,-,N/A,,Clear,310,2013-06-27 03:53:00
9:53 PM,70.0,57.9,65,30.04,10.0,NW,11.5,-,N/A,,Clear,310,2013-06-27 04:53:00
10:53 PM,68.0,59.0,73,30.05,10.0,NW,8.1,-,N/A,,Clear,320,2013-06-27 05:53:00
11:53 PM,66.9,59.0,76,30.06,10.0,NW,5.8,-,N/A,,Clear,320,2013-06-27 06:53:00